Montreal Mirabel, Quebec

11:50 PM EDT on September 29, 2016 (GMT -0400)
Montreal International (Mirabel)

Weather History for CYMX - September, 2012

Change the Weather History Date:

Sunday, September 30, 2012

  Actual Average Record
Temperature  
Mean Temperature 50 °F -  
Max Temperature 51 °F 59 °F 71 °F (2013)
Min Temperature 50 °F 40 °F 35 °F (2006)
Degree Days  
Heating Degree Days 14    
Moisture  
Dew Point 51 °F    
Average Humidity 99    
Maximum Humidity 100    
Minimum Humidity 94    
Precipitation  
Precipitation 0.00 in - - ()
Sea Level Pressure  
Sea Level Pressure 29.86 in    
Wind  
Wind Speed 6 mph ()    
Max Wind Speed 9 mph    
Max Gust Speed -    
Visibility 3.4 miles    
Events Rain    
Averages and records for this station are not official NWS values.
T = Trace of Precipitation, MM = Missing Value Source: Averaged Metar Reports

Daily Weather History Graph

Daily Weather History Graph

Search for Another Location

Airport or City:

Trip Planner

Search our weather history database for the weather conditions in past years. The results will help you decide how hot, cold, wet, or windy it might be!

Date:

Astronomy

Sep. 30, 2012 Rise Set
Actual Time 6:53 AM EDT 6:37 PM EDT
Civil Twilight 6:24 AM EDT 7:06 PM EDT
Nautical Twilight 5:49 AM EDT 7:41 PM EDT
Astronomical Twilight 5:14 AM EDT 8:16 PM EDT
Moon 6:34 PM EDT 7:26 AM EDT
Length of Visible Light 12h 42m
Length of Day
11h 43m
Full, 100% of the Moon is Illuminated
Sep 30
Full
Oct 8
Last Quarter
Oct 15
New
Oct 21
First Quarter
Oct 29
Full

Hourly Weather History & Observations

Time (EDT) Temp. Dew Point Humidity Pressure Visibility Wind Dir Wind Speed Gust Speed Precip Events Conditions
12:00 AM 50.0 °F 48.2 °F 94% 30.00 in 5.0 mi NE 5.8 mph - N/A   Light Drizzle
1:00 AM 50.0 °F 48.2 °F 94% 29.99 in 5.0 mi NE 8.1 mph - N/A   Light Drizzle
2:00 AM 50.0 °F 48.2 °F 94% 29.99 in 4.0 mi NE 8.1 mph - N/A   Light Drizzle
3:00 AM 50.0 °F 48.2 °F 94% 29.97 in 3.0 mi NE 6.9 mph - N/A   Light Drizzle
4:00 AM 50.0 °F 48.2 °F 94% 29.96 in 3.0 mi NE 8.1 mph - N/A   Light Drizzle
5:00 AM 50.0 °F 50.0 °F 100% 29.97 in 3.0 mi ENE 8.1 mph - N/A   Light Drizzle
6:00 AM 50.0 °F 50.0 °F 100% 29.96 in 3.0 mi NE 5.8 mph - N/A   Light Drizzle
7:00 AM 50.0 °F 50.0 °F 100% 29.96 in 3.0 mi ENE 8.1 mph - N/A   Light Drizzle
7:32 AM 50.0 °F 50.0 °F 100% 29.94 in 2.5 mi NE 8.1 mph - N/A   Light Drizzle
8:00 AM 50.0 °F 50.0 °F 100% 29.94 in 3.0 mi NE 6.9 mph - N/A   Light Drizzle
9:00 AM 50.0 °F 50.0 °F 100% 29.96 in 2.5 mi ENE 8.1 mph - N/A   Light Drizzle
10:00 AM 51.8 °F 50.0 °F 94% 29.94 in 2.0 mi NE 9.2 mph - N/A   Light Drizzle
11:00 AM 51.8 °F 51.8 °F 100% 29.93 in 2.5 mi NE 8.1 mph - N/A   Light Drizzle
12:00 PM 51.8 °F 51.8 °F 100% 29.90 in 3.0 mi NE 6.9 mph - N/A   Light Drizzle
1:00 PM 51.8 °F 51.8 °F 100% 29.88 in 2.0 mi NE 5.8 mph - N/A Rain Light Rain
1:53 PM 51.8 °F 51.8 °F 100% 29.85 in 2.5 mi NNE 5.8 mph - N/A   Light Drizzle
2:00 PM 51.8 °F 51.8 °F 100% 29.84 in 2.5 mi NNE 6.9 mph - N/A   Light Drizzle
2:04 PM 51.8 °F 51.8 °F 100% 29.84 in 2.5 mi NE 4.6 mph - N/A Rain Light Rain
2:49 PM 51.8 °F 51.8 °F 100% 29.83 in 2.5 mi NE 4.6 mph - N/A Rain Light Rain
3:00 PM 51.8 °F 51.8 °F 100% 29.83 in 2.5 mi NNE 5.8 mph - N/A Rain Light Rain
4:00 PM 51.8 °F 51.8 °F 100% 29.80 in 3.0 mi North 5.8 mph - N/A Rain Light Rain
5:00 PM 51.8 °F 51.8 °F 100% 29.77 in 3.0 mi North 5.8 mph - N/A Rain Light Rain
6:00 PM 51.8 °F 51.8 °F 100% 29.75 in 3.0 mi WNW 3.5 mph - N/A Rain Light Rain
7:00 PM 51.8 °F 51.8 °F 100% 29.73 in 3.0 mi West 4.6 mph - N/A Rain Light Rain
8:00 PM 51.8 °F 51.8 °F 100% 29.71 in 2.0 mi West 3.5 mph - N/A Rain Light Rain
9:00 PM 51.8 °F 51.8 °F 100% 29.68 in 3.0 mi West 4.6 mph - N/A Rain Light Rain
9:20 PM 51.8 °F 51.8 °F 100% 29.67 in 6.0 mi West 3.5 mph - N/A Rain Light Rain
10:00 PM 51.8 °F 51.8 °F 100% 29.65 in 6.0 mi West 4.6 mph - N/A Rain Light Rain
11:00 PM 51.8 °F 51.8 °F 100% 29.62 in 10.0 mi West 4.6 mph - N/A Rain Light Rain